Location: Newark
(7.0858°N, 171.3717°E)
Time: 13:29:20
(UTC+00:00)

Vanguard 1 Rocket - Pass Details

Date: 29 November 2020
Orbit: 655 x 4222 km, 34.3° (Epoch: 23 January)

Event Time Altitude Azimuth Distance (km) Brightness Sun altitude
Exits shadow 16:58:10 17° 321° (NW) 6,020 11.0 -22.3°
Maximum altitude 17:08:14 25° 356° (N) 4,674 10.7 -20.0°
Drops below altitude 10° 17:19:00 10° 46° (NE) 4,596 11.3 -17.5°
Sets 17:22:54 0° 61° (ENE) 5,095 11.8 -16.6°
